San Antonio, TX

5:04 PM CDT on April 27, 2017 (GMT -0500)
San Antonio International

Weather History for KSAT - December, 2013

Change the Weather History Date:

Friday, December 27, 2013

  Actual Average Record
Temperature  
Mean Temperature 52 °F 52 °F  
Max Temperature 58 °F 63 °F 82 °F (2005)
Min Temperature 46 °F 41 °F 22 °F (1892)
Degree Days  
Heating Degree Days 13 14  
Month to date heating degree days 346 336  
Since 1 July heating degree days 574 547  
Cooling Degree Days 0 0  
Month to date cooling degree days 18 7  
Year to date cooling degree days 3524 3124  
Growing Degree Days 2 (Base 50)    
Moisture  
Dew Point 45 °F    
Average Humidity 78    
Maximum Humidity 93    
Minimum Humidity 62    
Precipitation  
Precipitation 0.27 in 0.06 in 1.94 in (1934)
Month to date precipitation 0.55 1.65  
Year to date precipitation 32.00 32.01  
Snow  
Snow 0.00 in - - ()
Month to date snowfall 0.0  
Since 1 July snowfall 0.0  
Snow Depth 0.00 in    
Sea Level Pressure  
Sea Level Pressure 30.35 in    
Wind  
Wind Speed 3 mph (NNE)    
Max Wind Speed 10 mph    
Max Gust Speed 13 mph    
Visibility 7 miles    
Events Rain    
T = Trace of Precipitation, MM = Missing Value Source: NWS Daily Summary

Daily Weather History Graph

Daily Weather History Graph

Search for Another Location

Airport or City:

Trip Planner

Search our weather history database for the weather conditions in past years. The results will help you decide how hot, cold, wet, or windy it might be!

Date:

Astronomy

Dec. 27, 2013 Rise Set
Actual Time 7:27 AM CST 5:43 PM CST
Civil Twilight 7:01 AM CST 6:09 PM CST
Nautical Twilight 6:31 AM CST 6:39 PM CST
Astronomical Twilight 6:02 AM CST 7:08 PM CST
Moon 2:14 AM CST 1:42 PM CST
Length of Visible Light 11h 08m
Length of Day
10h 15m
Waning Crescent, 28% of the Moon is Illuminated
Dec 27
Waning Crescent
Jan 1
New
Jan 7
First Quarter
Jan 15
Full
Jan 23
Last Quarter

Hourly Weather History & Observations

Time (CST) Temp. Dew Point Humidity Pressure Visibility Wind Dir Wind Speed Gust Speed Precip Events Conditions
12:51 AM 51.1 °F 45.0 °F 80% 30.35 in 8.0 mi Calm Calm - N/A   Overcast
1:23 AM 50.0 °F 44.6 °F 82% 30.36 in 5.0 mi Calm Calm - 0.01 in Rain Light Rain
1:51 AM 48.9 °F 46.0 °F 90% 30.34 in 5.0 mi NW 3.5 mph - 0.02 in Rain Light Rain
2:51 AM 48.9 °F 46.0 °F 90% 30.34 in 5.0 mi Calm Calm - 0.03 in Rain Light Rain
3:51 AM 48.9 °F 45.0 °F 86% 30.35 in 5.0 mi Calm Calm - 0.04 in Rain Light Rain
4:51 AM 48.9 °F 45.0 °F 86% 30.34 in 4.0 mi North 4.6 mph - 0.05 in Rain Light Rain
5:51 AM 48.0 °F 45.0 °F 89% 30.34 in 4.0 mi NNE 3.5 mph - 0.04 in Rain Light Rain
6:51 AM 48.9 °F 45.0 °F 86% 30.36 in 5.0 mi NNE 3.5 mph - 0.01 in Rain Light Rain
7:51 AM 48.9 °F 45.0 °F 86% 30.38 in 4.0 mi Calm Calm - 0.03 in Rain Light Rain
8:51 AM 48.9 °F 45.0 °F 86% 30.39 in 3.0 mi Calm Calm - 0.02 in Rain Light Rain
9:22 AM 48.2 °F 46.4 °F 93% 30.42 in 3.0 mi NE 3.5 mph - 0.01 in Rain Light Rain
9:51 AM 50.0 °F 46.0 °F 86% 30.41 in 4.0 mi ENE 6.9 mph - 0.02 in Rain Light Rain
10:51 AM 50.0 °F 45.0 °F 83% 30.41 in 7.0 mi NE 6.9 mph - 0.00 in   Overcast
11:51 AM 51.1 °F 45.0 °F 80% 30.39 in 9.0 mi ENE 5.8 mph - 0.00 in   Overcast
12:51 PM 52.0 °F 44.1 °F 74% 30.37 in 10.0 mi ENE 3.5 mph - N/A   Overcast
1:51 PM 53.1 °F 46.0 °F 77% 30.34 in 7.0 mi North 4.6 mph - 0.01 in Rain Light Rain
2:51 PM 55.9 °F 44.1 °F 64% 30.32 in 10.0 mi North 4.6 mph - 0.00 in   Mostly Cloudy
3:51 PM 57.0 °F 44.1 °F 62% 30.32 in 10.0 mi NNE 5.8 mph - N/A   Mostly Cloudy
4:51 PM 55.0 °F 44.1 °F 67% 30.31 in 10.0 mi East 3.5 mph - N/A   Mostly Cloudy
5:51 PM 54.0 °F 45.0 °F 72% 30.32 in 10.0 mi Calm Calm - N/A   Overcast
6:51 PM 55.0 °F 44.1 °F 67% 30.33 in 10.0 mi Calm Calm - N/A   Overcast
7:51 PM 54.0 °F 44.1 °F 69% 30.34 in 10.0 mi Calm Calm - N/A   Overcast
8:51 PM 52.0 °F 46.0 °F 80% 30.34 in 10.0 mi NW 3.5 mph - N/A   Overcast
9:51 PM 52.0 °F 46.0 °F 80% 30.32 in 8.0 mi NW 3.5 mph - N/A   Overcast
10:51 PM 50.0 °F 46.0 °F 86% 30.32 in 10.0 mi NW 3.5 mph - N/A   Mostly Cloudy
11:51 PM 48.0 °F 44.1 °F 86% 30.30 in 10.0 mi NW 4.6 mph - N/A   Mostly Cloudy